ECMWFNIL_sfc_thetae_000.txt.gz
Theta_e
343 343 340 339 340 339 341 340 340 341 342 341 340 341 340 341 343 342 341 341 342 341 342 342 342 342 341 342 342 342 342 344 345 345 345 344 343 339 340 342 343 348
341 340 340 340 340 340 341 341 341 341 341 341 341 341 341 342 340 341 340 340 340 340 341 341 342 342 341 339 340 340 340 343 344 343 343 345 344 343 343 348 348 350
340 339 339 338 336 336 338 341 343 342 341 340 342 341 340 341 340 341 341 340 340 339 340 340 340 341 340 340 340 340 339 340 341 343 344 344 342 343 343 346 349 346
342 340 338 338 338 337 338 340 341 341 341 339 339 340 339 340 341 340 340 340 340 339 339 339 339 339 340 340 340 338 338 339 340 342 344 346 345 342 337 340 346 347
339 340 341 339 338 339 340 340 340 340 340 339 339 340 340 340 340 339 339 339 340 339 338 338 339 339 340 341 342 340 341 338 337 338 336 337 339 339 340 343 343 338
341 340 340 339 339 338 337 337 338 339 339 338 339 339 339 339 339 339 339 339 338 337 338 338 338 338 339 340 341 343 342 337 337 337 336 336 335 335 336 338 337 336
340 340 340 339 338 338 338 338 339 339 338 339 341 340 340 339 339 340 341 341 342 342 341 342 341 340 341 342 342 342 339 339 339 338 335 337 337 337 337 337 335 334
340 339 339 339 337 337 338 339 339 338 339 340 338 339 340 339 340 340 341 341 341 342 343 345 344 341 340 342 340 341 340 340 340 337 336 335 335 334 336 336 334 335
341 340 339 338 337 336 335 334 333 336 337 338 337 337 339 339 339 340 340 342 342 342 344 346 344 342 341 340 341 340 340 337 337 338 335 333 331 332 331 332 333 333
341 340 338 335 334 335 334 334 333 335 336 335 336 337 337 340 341 341 342 343 343 343 344 344 343 343 341 339 340 339 338 338 336 337 336 333 331 331 331 332 332 331
340 339 337 336 335 333 334 333 332 332 334 335 336 337 339 339 340 341 342 343 343 343 342 343 341 341 341 341 341 341 339 336 338 339 337 332 331 331 328 330 329 329
339 338 336 335 335 334 334 335 335 335 334 332 333 331 333 333 334 335 339 342 343 342 343 343 344 344 343 343 341 340 339 339 338 336 333 331 331 330 329 329 328 328
338 337 336 335 335 335 336 334 334 332 332 332 332 331 331 332 333 334 335 339 342 343 342 341 342 343 343 343 341 339 337 337 337 336 332 330 331 329 329 328 328 327
338 337 336 336 336 337 336 335 335 335 335 335 333 331 329 330 330 332 333 335 335 338 341 343 343 343 343 343 341 338 337 336 335 334 331 330 330 327 328 328 327 327
339 338 337 337 336 337 336 336 336 336 335 334 333 331 331 331 333 333 334 334 335 337 342 344 342 341 342 342 338 336 336 335 334 334 331 329 328 328 327 327 327 326
339 339 338 337 336 336 337 337 334 334 333 333 332 331 332 332 335 335 334 335 334 335 338 342 341 343 337 330 329 334 334 334 333 334 333 330 328 326 325 326 325 325
339 338 338 336 337 336 336 337 336 334 333 332 332 333 332 336 335 334 333 333 333 335 337 340 341 342 332 325 325 325 334 335 333 333 333 331 328 327 325 325 324 324
337 337 337 335 335 336 337 337 335 334 333 333 332 331 332 332 332 333 334 334 335 336 337 339 339 335 326 324 325 325 326 334 333 332 332 332 330 328 326 325 324 324
338 337 336 336 336 336 337 336 335 333 332 331 329 331 331 332 333 331 333 334 335 334 333 335 337 332 324 323 323 322 323 328 333 332 333 332 332 331 327 326 325 325
336 336 335 335 336 336 336 336 334 332 331 330 330 331 331 330 331 331 332 333 332 332 333 334 336 329 325 323 321 321 321 325 334 332 332 333 333 332 330 327 327 325
336 336 336 337 337 337 338 337 333 332 331 330 328 328 329 330 330 331 332 332 331 330 330 330 331 327 324 322 320 318 318 322 334 332 332 333 334 333 330 329 327 326
336 336 336 339 337 337 336 334 331 331 330 330 331 330 331 331 332 332 333 333 333 331 329 331 329 323 321 320 318 317 318 333 332 331 331 332 334 334 332 331 329 327
336 335 335 336 336 335 335 332 330 329 329 331 331 330 327 327 329 327 330 332 332 332 329 330 332 326 317 317 315 316 319 334 330 329 330 333 334 334 334 330 329 329
337 337 335 334 335 334 334 331 330 330 330 332 329 327 326 328 327 325 327 332 330 330 328 330 326 323 313 312 311 314 322 335 331 328 329 332 332 335 334 330 330 329
336 335 334 333 334 333 333 330 330 330 330 333 331 329 329 333 330 330 331 331 327 326 329 329 330 325 311 312 311 314 322 338 335 330 330 331 330 334 335 333 331 329
337 336 336 335 334 334 335 334 333 331 331 330 329 328 328 330 333 330 329 330 330 331 331 327 330 332 328 311 311 311 314 336 336 333 330 330 331 334 334 331 332 330

ECMWFNIL_sfc_thetae_003.txt.gz
Theta_e
344 345 342 341 341 342 341 340 340 339 340 340 340 341 341 343 345 345 344 343 343 342 342 343 343 342 341 342 342 342 341 340 340 342 341 343 342 341 338 338 342 343
343 343 344 343 343 342 342 341 340 341 342 342 342 342 343 343 343 343 342 342 342 342 342 341 342 342 342 340 341 339 339 340 339 340 340 342 341 339 337 339 337 338
343 342 341 342 340 340 337 340 340 342 341 341 342 342 342 342 342 343 343 342 341 341 341 341 340 340 339 340 340 339 337 337 338 340 339 338 339 341 340 339 340 340
344 342 340 340 340 339 339 339 341 342 342 340 340 341 340 341 341 341 341 341 341 340 340 341 340 339 339 339 339 339 339 339 338 337 336 337 338 338 337 336 334 334
341 342 342 341 340 341 339 338 339 339 340 339 340 341 341 341 341 340 340 339 340 339 339 338 338 338 339 339 339 339 340 339 338 338 338 337 338 338 337 337 336 334
342 342 343 342 342 341 340 338 338 339 339 338 339 340 340 340 340 339 339 338 337 336 337 338 337 337 338 339 340 340 341 339 339 340 341 341 338 337 337 337 335 333
342 343 343 342 341 341 339 339 339 340 339 340 340 340 340 338 339 340 340 339 338 339 338 340 341 340 340 340 339 340 340 340 341 340 338 337 338 335 335 334 333 332
342 342 342 343 341 340 339 338 337 337 339 341 338 340 340 338 339 338 339 338 338 338 339 339 341 342 340 339 339 338 338 338 337 337 339 338 338 334 332 332 333 332
342 341 341 340 339 338 336 334 333 335 336 336 337 337 339 339 338 338 339 340 339 339 341 341 343 341 341 341 338 338 340 340 337 338 338 338 337 332 331 332 331 331
342 342 340 338 336 337 336 335 332 333 336 336 335 334 334 338 339 339 339 339 338 339 339 340 341 341 341 340 337 338 340 340 338 338 338 337 333 331 330 331 330 330
341 341 340 340 338 334 335 334 332 331 334 334 334 335 335 336 336 337 337 337 335 337 341 343 340 336 337 338 338 339 340 339 339 339 336 335 333 331 331 330 330 329
341 341 339 338 337 336 336 336 335 335 334 333 334 333 334 333 334 334 334 335 336 336 338 341 341 339 338 337 337 339 339 339 338 337 335 333 332 331 330 330 330 329
339 339 339 338 337 337 337 336 334 333 333 334 334 333 332 332 332 333 334 334 335 335 334 336 340 339 340 336 334 335 338 340 338 336 333 332 332 330 330 330 329 329
338 339 339 339 338 339 338 337 336 336 337 338 337 335 332 332 331 331 332 333 334 334 334 335 337 342 341 338 335 335 335 337 336 336 333 332 331 331 330 330 330 329
340 339 339 339 338 338 337 337 337 337 338 337 336 335 334 333 333 332 333 333 333 334 335 335 337 341 341 338 338 339 338 336 335 335 331 330 331 330 330 330 330 329
341 341 340 340 338 337 338 338 337 337 337 337 335 334 335 334 335 334 332 332 331 333 334 335 338 340 337 334 334 338 336 335 335 333 332 331 330 329 329 329 330 329
341 340 340 339 340 338 338 338 338 339 339 337 336 335 335 335 334 332 331 331 331 332 334 336 337 338 330 326 327 330 334 335 334 332 331 330 330 329 328 329 331 330
339 339 339 338 339 338 338 338 339 338 338 338 336 334 334 333 332 332 332 333 332 333 334 335 335 332 324 325 327 327 330 336 335 332 330 329 328 329 330 330 329 328
339 338 337 337 338 338 339 339 338 338 337 336 334 333 332 333 333 331 332 332 332 332 331 332 334 326 323 324 325 324 325 329 334 333 329 327 328 329 331 331 329 329
338 337 336 337 337 338 338 338 338 337 337 335 333 334 333 331 330 331 332 334 334 333 333 332 331 325 322 323 323 322 323 327 336 334 330 329 330 332 332 332 332 332
337 336 336 336 337 338 339 339 338 340 338 334 331 331 331 332 331 331 333 335 332 333 332 331 330 322 318 320 320 319 321 325 335 335 331 330 330 331 332 333 333 333
336 336 337 337 337 338 339 339 339 340 338 335 332 330 332 332 331 331 330 331 333 332 331 329 330 323 320 318 318 318 320 333 336 335 330 327 328 331 334 335 336 337
335 334 335 336 335 335 336 337 338 338 336 334 331 331 330 329 331 330 332 330 331 331 330 330 329 326 319 315 315 317 321 335 335 332 329 327 328 330 332 334 335 336
336 336 336 335 335 333 333 335 336 337 334 334 331 329 328 328 331 332 332 333 332 331 329 329 329 325 316 315 312 314 319 335 333 329 333 331 331 332 333 335 337 327
335 335 336 336 335 333 334 334 334 335 335 335 331 330 330 333 332 331 331 332 329 329 331 328 328 325 320 318 315 313 319 332 334 331 332 331 329 329 331 333 334 334
336 337 338 336 334 333 335 334 335 334 334 333 333 330 327 327 327 328 330 331 331 329 328 328 328 329 330 317 312 312 314 328 333 330 330 330 331 327 326 327 329 330

ECMWFNIL_sfc_thetae_006.txt.gz
Theta_e
353 351 349 353 355 352 350 344 347 342 345 344 347 345 346 346 349 348 347 349 348 348 348 348 349 347 345 346 347 346 345 343 343 344 344 343 344 340 339 340 340 338
349 350 347 349 348 347 350 346 348 349 344 347 346 347 348 348 346 347 348 346 347 346 347 345 346 346 346 344 345 345 346 344 342 342 342 341 342 340 338 338 338 339
349 347 346 344 344 345 342 345 350 344 346 348 345 345 346 348 348 348 348 346 345 345 346 346 344 345 345 345 345 344 342 343 342 342 341 341 341 340 339 337 338 338
350 348 346 345 346 342 345 346 346 346 345 349 344 344 343 344 346 344 346 345 345 345 345 344 343 342 344 344 344 345 343 344 344 343 341 342 342 340 339 340 339 337
349 348 347 347 347 348 348 343 339 343 344 344 342 347 349 344 347 344 343 344 345 342 343 344 345 344 345 343 344 343 343 344 345 343 342 342 343 341 339 339 338 334
349 349 349 347 347 347 344 342 342 339 341 339 346 344 346 345 345 343 342 340 338 338 339 340 341 341 341 341 342 342 342 342 342 343 341 340 340 341 339 337 335 334
346 346 345 345 344 345 344 344 344 344 343 343 347 346 345 342 343 344 344 342 341 341 340 341 342 342 343 343 342 342 342 342 341 341 340 339 340 340 339 336 337 334
345 345 345 346 344 345 343 343 342 342 344 345 341 344 344 341 343 342 343 343 340 341 342 342 342 342 341 341 341 341 338 339 339 339 339 337 339 338 336 336 336 334
347 346 346 345 344 343 338 337 337 341 341 340 339 340 347 346 345 343 345 344 342 341 342 341 342 342 344 342 341 340 338 338 339 340 338 337 336 336 334 336 334 333
346 346 343 339 336 340 337 336 335 336 342 345 337 342 342 347 343 341 342 342 341 341 340 341 341 343 344 342 341 340 339 338 338 338 337 337 336 335 333 333 332 331
343 342 341 342 340 335 336 334 333 333 339 336 340 340 344 345 346 345 344 342 341 342 341 340 341 342 342 341 341 341 339 337 337 337 337 337 336 335 333 334 332 330
343 342 340 341 340 338 337 338 339 341 337 335 343 335 341 338 341 340 340 341 343 342 341 340 341 343 343 342 340 340 339 338 337 338 337 336 336 334 333 333 331 331
342 343 343 340 343 342 342 339 335 333 333 335 335 335 333 333 335 337 342 342 342 343 342 341 340 340 343 343 342 341 339 338 337 337 337 335 334 333 331 331 331 330
342 344 343 345 344 347 346 343 342 344 341 344 340 336 334 335 332 335 336 339 338 337 337 339 338 338 342 343 344 342 340 338 338 337 336 335 334 333 332 330 330 330
347 346 346 346 344 346 345 344 343 346 344 343 343 340 337 335 335 335 338 338 337 337 338 340 338 337 338 342 342 341 340 337 338 337 335 333 333 332 331 331 331 330
347 347 347 346 345 344 344 344 342 344 341 341 341 340 340 340 341 340 334 334 336 339 338 337 337 339 338 334 335 340 339 337 335 335 335 334 333 331 330 330 330 330
346 345 346 345 345 343 344 344 344 343 344 343 343 342 341 341 339 338 333 334 334 333 333 335 337 337 333 328 329 333 336 337 337 336 336 335 332 330 328 329 330 331
344 345 344 345 345 344 344 344 344 344 343 343 342 340 342 342 338 338 338 337 335 333 334 337 336 334 326 326 328 328 331 336 336 335 333 333 332 330 329 328 329 329
345 344 344 344 344 344 345 345 345 343 342 341 339 341 341 340 340 339 339 339 337 339 334 334 333 330 324 324 325 325 326 329 334 334 333 333 332 331 329 329 330 331
344 343 342 343 344 344 345 344 343 342 342 340 340 342 341 338 337 337 337 338 340 339 339 336 335 329 323 322 322 322 324 327 333 334 334 334 333 331 329 329 330 332
344 343 342 343 343 344 345 343 342 343 342 341 339 338 338 338 338 338 339 337 340 336 335 334 332 326 320 319 318 319 321 324 332 334 335 335 334 332 330 330 331 327
343 343 342 342 343 343 343 342 343 345 345 345 342 338 337 335 335 337 336 335 338 338 333 335 330 320 319 318 316 316 319 327 331 333 334 334 333 331 332 334 330 326
342 341 341 341 342 341 341 341 343 343 343 347 340 336 334 333 333 333 335 335 334 333 333 334 332 325 316 316 316 315 319 330 333 333 334 333 331 332 334 332 331 328
342 341 341 341 341 339 339 341 340 342 343 343 337 335 332 331 331 332 335 337 334 333 328 330 329 327 318 314 314 314 321 329 332 333 332 332 331 333 334 333 333 332
343 342 341 340 341 339 339 339 339 339 340 341 336 335 334 337 335 331 332 334 330 328 333 329 328 324 315 314 315 316 323 330 332 331 331 332 332 331 332 333 334 335
344 344 342 341 341 342 342 343 341 339 339 335 334 333 333 334 333 330 329 328 327 327 327 330 328 332 329 315 314 313 314 326 330 331 330 331 331 331 329 330 329 329

ECMWFNIL_sfc_thetae_009.txt.gz
Theta_e
339 337 341 332 335 342 336 339 337 336 338 336 336 338 337 339 342 339 340 341 341 340 340 339 340 339 342 338 338 339 338 336 337 336 336 336 334 334 334 333 332 331
338 341 346 342 343 343 338 336 337 334 336 336 335 336 339 338 338 339 340 339 340 338 339 339 338 337 337 337 336 336 335 336 334 341 335 334 333 333 332 332 331 331
339 341 338 335 336 337 335 335 339 336 334 334 339 338 337 340 339 339 336 337 336 337 338 338 337 337 337 337 336 336 335 333 334 336 335 332 334 332 331 332 331 331
339 339 336 337 336 337 337 338 335 334 334 336 337 340 340 339 336 334 337 344 338 337 337 338 337 336 335 335 335 334 335 335 335 335 333 334 334 334 332 332 334 332
337 338 337 338 337 339 337 333 332 334 335 336 336 334 336 336 336 336 335 336 336 336 335 335 337 337 337 336 335 334 335 335 336 335 333 332 333 335 335 333 331 330
339 337 337 337 338 336 335 332 333 332 332 334 334 339 338 337 334 333 335 333 334 333 332 333 333 335 335 335 334 333 334 335 336 336 335 334 334 335 336 333 329 328
339 337 337 337 337 337 333 332 332 335 333 332 334 333 335 333 334 334 334 334 334 335 333 333 334 334 336 335 334 334 334 334 334 335 334 333 334 334 334 331 330 329
337 337 337 337 336 335 336 334 333 333 334 335 333 334 335 333 333 334 336 336 334 333 334 335 335 334 334 335 334 334 333 336 334 333 332 331 331 331 332 333 330 327
337 335 336 336 335 336 334 335 334 333 334 334 333 333 336 334 334 334 335 334 334 334 333 333 334 334 335 335 334 333 332 332 334 333 332 331 331 331 331 330 328 328
337 337 337 336 335 336 335 335 335 333 335 334 334 334 333 337 336 335 335 334 334 334 333 333 334 334 334 335 334 333 332 332 331 331 331 331 331 331 330 329 327 326
337 338 337 336 336 336 335 335 333 331 335 335 333 332 332 333 335 336 334 334 334 333 333 333 334 334 334 335 335 335 334 333 332 331 331 331 331 331 333 330 328 327
336 337 336 335 335 334 333 333 332 332 329 331 332 333 333 333 331 332 333 330 331 332 332 331 331 332 334 335 335 336 335 334 333 332 332 332 331 331 330 329 328 327
336 335 335 334 335 334 333 333 333 330 330 330 332 331 331 330 329 329 330 331 332 333 334 332 332 331 331 333 335 335 334 332 332 332 332 332 332 331 330 329 327 326
336 336 336 335 336 336 335 334 332 332 332 333 333 330 330 330 329 329 329 332 331 330 329 329 329 328 329 332 334 335 334 334 333 333 332 331 331 330 329 328 327 327
336 336 337 337 338 336 336 334 332 332 333 332 331 333 335 331 331 331 330 330 330 329 329 330 333 333 333 335 336 336 335 335 334 333 332 330 328 328 328 328 327 327
337 337 337 336 336 335 334 333 332 332 333 332 333 333 332 335 333 332 333 330 328 329 331 332 330 333 337 337 338 338 335 336 334 332 330 329 328 328 328 328 327 326
337 338 337 336 335 334 334 333 333 334 333 332 332 333 333 333 334 332 330 329 328 328 326 328 331 336 333 327 330 335 334 332 332 331 330 329 329 328 326 326 325 325
336 336 336 335 335 334 334 333 333 333 333 333 333 334 334 335 333 332 331 331 330 328 327 329 332 334 326 326 328 328 331 331 330 331 331 330 328 327 326 325 324 324
335 335 334 334 334 334 334 334 333 333 333 333 333 335 335 334 333 333 331 331 331 329 329 329 328 330 325 324 325 325 326 327 328 329 329 328 328 327 327 325 323 324
336 335 334 334 334 335 334 334 333 333 333 334 334 335 334 333 332 330 329 329 328 327 329 330 329 328 324 322 321 322 323 326 326 326 327 328 328 328 328 326 324 324
336 335 335 334 335 334 334 333 333 333 334 334 334 332 332 331 331 330 330 330 331 332 331 332 333 327 323 321 319 318 320 324 324 327 327 328 328 329 329 327 325 325
336 335 334 334 334 334 333 333 333 333 333 334 335 334 333 332 330 329 329 328 329 331 330 327 329 324 320 318 316 316 320 325 324 324 324 325 327 328 329 327 327 325
336 335 334 333 333 333 332 333 333 333 334 337 335 332 330 330 329 329 328 327 327 329 328 325 327 320 316 315 315 315 318 322 323 324 325 326 327 329 328 327 327 325
337 336 334 333 333 332 332 332 334 335 336 338 332 330 330 330 329 328 327 328 328 328 327 324 324 320 314 312 313 314 320 324 324 324 323 324 326 327 328 327 328 335
338 336 334 333 332 332 332 332 332 333 335 336 332 331 329 329 330 327 326 326 327 325 329 323 323 323 316 314 314 313 319 323 324 323 323 323 325 326 326 327 326 330
338 336 334 333 332 332 332 332 333 334 332 333 330 329 328 328 330 326 324 325 325 324 326 324 325 326 326 316 313 312 313 321 323 321 323 324 324 326 326 325 324 324

ECMWFNIL_sfc_thetae_015.txt.gz
Theta_e
333 333 330 329 328 330 332 330 330 330 329 329 328 328 333 333 335 335 335 334 335 332 334 332 336 334 336 333 333 332 333 330 330 328 328 329 328 327 329 328 325 327
332 333 335 331 332 336 332 331 330 329 329 329 329 330 332 334 334 333 332 332 335 333 332 332 333 333 332 332 330 330 329 329 330 334 329 328 329 327 328 327 326 325
330 331 332 329 330 333 332 331 331 329 329 330 330 331 331 335 333 332 331 331 333 333 331 331 330 331 331 330 329 329 330 327 328 329 331 330 329 327 328 327 326 326
330 331 331 330 331 332 331 331 330 329 329 330 329 331 332 335 333 331 330 339 330 329 329 328 330 330 330 331 330 329 329 329 329 328 328 329 330 329 328 327 329 327
330 331 331 330 332 332 331 330 330 329 329 329 330 330 334 332 331 329 330 331 330 328 328 330 329 330 331 330 329 329 329 329 329 328 327 327 328 329 330 329 327 327
331 332 332 331 332 331 329 329 331 330 329 328 329 332 332 331 331 330 330 329 330 331 330 329 329 329 329 329 327 329 329 330 330 328 327 328 329 329 330 329 328 327
331 332 331 331 332 331 330 329 330 332 329 329 329 330 331 330 329 330 329 329 329 331 329 328 328 327 327 326 326 328 328 328 328 327 327 328 329 328 328 328 329 328
332 332 332 331 331 331 331 330 330 331 329 329 328 329 330 330 329 329 330 329 328 328 328 328 328 327 327 326 328 328 328 329 329 328 327 328 326 326 328 329 329 328
332 332 332 331 331 331 331 331 331 330 330 329 328 328 330 330 329 329 329 328 327 328 328 327 328 328 328 327 328 328 328 328 329 328 328 327 326 326 326 326 325 327
333 333 332 331 331 331 331 331 331 330 331 329 329 328 328 330 329 328 327 327 327 328 328 328 328 328 328 328 329 328 328 328 327 327 328 327 327 327 327 326 327 326
334 334 332 332 332 331 331 331 330 330 331 330 329 328 328 328 330 330 328 327 328 328 328 328 329 329 328 328 329 329 329 328 328 327 327 327 327 327 330 327 326 326
334 333 332 332 332 332 332 331 331 330 330 332 330 329 328 328 328 328 331 329 328 328 328 328 328 328 328 328 328 329 329 329 329 328 328 327 327 327 327 327 327 326
333 333 334 333 333 332 332 331 331 331 330 330 332 331 329 328 328 328 330 330 330 329 329 328 328 327 327 327 327 327 328 328 328 328 328 328 327 328 328 327 327 327
334 335 334 334 334 333 332 331 332 331 331 331 332 330 329 329 328 328 328 330 329 327 327 328 327 327 326 326 326 326 327 327 327 327 327 327 327 327 328 328 328 328
335 335 335 335 334 332 332 332 332 333 333 331 331 331 331 329 329 328 326 327 327 327 327 329 328 327 326 325 324 324 325 325 326 327 327 326 326 326 327 327 328 328
335 334 334 334 334 333 333 333 332 332 332 330 329 329 329 329 327 327 327 326 326 326 326 327 327 327 331 331 331 327 325 326 327 327 326 326 327 327 327 327 327 327
334 334 334 334 333 333 333 333 332 332 332 331 329 328 328 328 328 326 327 327 327 327 326 327 327 328 330 327 328 332 330 326 326 326 327 327 327 327 327 328 327 326
333 331 332 333 333 333 333 328 328 330 331 330 329 328 328 328 328 327 327 327 328 327 327 328 327 330 325 325 326 327 330 330 327 327 327 326 326 326 327 327 327 326
331 331 332 333 333 333 332 330 331 332 331 330 329 328 328 327 327 328 327 327 327 327 327 328 328 328 324 324 324 324 325 327 328 327 326 325 325 325 325 325 325 325
331 332 332 332 333 333 332 331 331 331 332 331 330 329 327 327 327 327 327 327 327 327 328 328 328 327 323 322 321 321 322 325 323 322 323 323 324 324 324 324 324 324
330 331 332 332 332 331 330 330 330 331 331 331 330 328 327 327 327 327 327 328 328 329 328 328 329 326 321 320 319 318 319 323 320 322 322 322 323 323 323 323 323 324
330 331 332 332 330 331 331 330 330 331 331 330 330 328 328 328 328 328 328 328 329 329 328 328 328 322 320 319 318 316 319 322 318 318 318 320 321 321 321 321 320 320
332 332 331 331 331 329 329 330 330 331 331 331 329 327 326 326 327 327 329 328 329 328 327 326 325 321 315 314 315 315 318 317 317 317 318 318 319 319 318 318 320 322
332 331 331 331 330 330 330 331 331 332 331 331 328 327 326 327 327 327 328 329 328 326 325 324 324 321 314 313 312 313 318 317 316 316 316 317 317 317 316 317 320 328
332 332 331 331 330 331 331 331 331 331 331 330 329 327 327 327 329 327 325 324 325 326 331 327 321 319 315 313 312 312 317 316 315 314 314 316 316 316 318 319 319 323
332 332 331 331 330 331 331 330 331 330 328 327 328 328 327 326 328 326 324 323 324 325 327 322 319 321 319 311 312 311 313 317 316 314 317 317 317 318 318 317 315 316

ECMWFNIL_sfc_thetae_018.txt.gz
Theta_e
341 339 336 334 333 333 332 331 332 333 332 331 332 332 333 335 338 338 338 337 339 337 337 337 339 338 338 337 338 337 337 335 336 334 333 334 334 333 333 333 333 334
339 338 339 334 333 336 333 332 332 333 331 331 332 332 334 336 337 337 337 336 339 338 336 336 338 338 337 337 336 335 335 336 335 337 334 333 335 333 333 333 333 333
338 337 336 332 331 332 332 333 333 332 332 332 332 333 335 337 336 336 336 336 336 338 336 336 336 338 337 336 336 336 336 334 333 334 337 335 334 333 334 333 333 332
337 336 335 333 332 332 333 332 332 332 332 332 332 334 335 337 336 336 334 340 335 336 336 335 335 336 336 336 335 334 334 334 334 334 333 335 335 334 334 333 333 332
336 335 334 332 333 334 333 332 331 331 331 332 332 333 336 337 335 334 334 335 335 334 334 334 334 334 335 335 335 334 334 334 334 334 333 333 334 334 334 334 333 332
336 334 334 332 333 333 332 332 332 331 331 330 331 334 334 334 335 334 334 333 334 333 333 333 333 334 334 335 334 334 333 334 334 333 332 332 333 334 333 334 333 333
333 333 332 333 333 332 332 332 332 333 331 331 332 332 333 332 333 333 334 334 333 335 334 333 333 333 333 333 333 333 333 333 333 333 332 332 333 333 333 333 334 333
333 333 333 333 332 332 332 331 331 333 332 332 330 331 333 332 332 333 334 333 332 332 334 334 333 333 332 332 332 331 332 333 333 332 331 331 332 332 333 333 333 333
334 333 332 332 332 331 331 331 331 332 332 331 330 330 332 332 332 332 333 333 332 333 332 332 332 332 332 331 331 331 332 332 333 333 332 332 331 332 332 333 331 332
334 333 332 331 331 331 331 333 332 332 333 331 330 330 330 332 332 331 332 331 331 332 331 331 331 331 331 331 331 331 331 331 332 332 332 332 332 332 332 332 331 331
334 333 332 331 332 332 332 332 332 332 333 331 330 330 330 330 332 332 331 330 330 330 330 330 331 331 331 331 331 332 331 332 332 332 332 332 332 332 332 332 331 331
334 333 332 331 332 332 333 332 333 332 332 333 332 330 330 330 329 330 332 330 330 330 330 330 331 331 331 331 331 332 332 332 332 332 332 331 331 331 331 332 332 332
334 333 333 333 334 333 333 333 332 333 332 332 333 331 330 330 330 329 331 332 331 330 330 330 331 331 331 331 331 332 332 332 332 331 331 331 331 331 332 332 331 331
334 335 334 334 335 334 333 333 333 333 332 332 333 332 331 330 330 330 330 331 331 331 331 332 331 331 330 330 331 331 331 331 331 331 331 331 332 332 332 332 332 332
335 335 335 335 335 334 333 333 333 333 333 332 332 332 332 331 332 331 330 330 331 331 331 332 330 330 330 330 329 329 330 329 329 330 330 330 330 331 331 331 332 332
335 335 334 335 335 334 333 333 333 334 334 332 332 333 332 333 331 331 330 330 329 329 330 330 330 331 333 331 331 331 329 328 328 329 329 329 330 330 331 331 331 332
335 335 334 334 334 334 333 332 333 333 333 333 333 333 331 331 331 330 329 329 328 328 328 329 330 331 330 326 327 331 332 330 328 328 329 330 331 331 331 332 333 333
335 335 333 332 331 332 332 333 333 333 332 332 332 332 331 331 330 330 330 329 329 328 329 330 330 330 324 324 326 327 330 333 331 329 329 330 331 331 331 332 332 332
335 334 333 331 328 329 331 333 332 332 331 331 331 332 332 331 330 330 329 329 329 329 328 330 330 327 324 324 324 324 325 328 331 331 331 331 331 331 331 331 331 330
333 333 330 327 327 329 330 331 331 331 330 330 330 330 330 330 330 329 329 329 329 329 329 330 330 327 323 321 321 321 322 325 329 329 330 331 331 330 330 329 329 329
332 332 328 327 328 328 328 330 331 331 329 329 330 330 330 330 330 329 329 330 330 330 329 329 330 325 322 321 319 318 319 324 329 329 329 329 329 328 328 328 328 327
332 330 328 328 330 329 329 329 331 331 330 331 332 332 332 331 331 330 330 330 330 330 329 330 331 323 321 319 317 317 320 327 326 326 326 326 326 326 326 326 326 326
330 328 328 328 329 328 328 329 330 331 331 332 331 331 331 330 330 330 331 330 330 330 330 330 331 325 317 316 315 315 320 325 324 324 325 324 324 324 324 324 324 325
330 329 329 329 329 327 329 330 332 332 332 334 332 331 330 330 331 330 331 331 330 330 331 330 330 324 315 312 312 314 320 323 323 322 322 323 323 322 322 323 324 326
331 330 330 329 329 329 330 331 332 332 333 334 333 332 331 332 332 330 330 330 331 331 332 331 329 322 311 311 311 311 320 322 322 322 322 323 321 321 322 323 324 323
331 331 331 330 330 330 331 332 333 333 332 332 332 332 331 331 331 331 329 329 330 332 332 331 327 326 323 311 309 311 317 323 323 323 323 322 321 321 323 323 321 320

ECMWFNIL_sfc_thetae_021.txt.gz
Theta_e
361 361 359 356 355 353 352 350 349 350 351 350 348 348 349 349 352 353 353 353 353 351 351 351 351 350 348 348 348 347 346 344 343 344 343 342 341 340 339 339 340 339
360 360 358 356 354 353 352 350 350 349 349 350 350 350 351 351 350 351 352 352 352 350 351 349 351 350 349 346 347 346 345 346 343 344 344 343 341 341 339 339 339 340
360 358 356 354 352 350 348 349 350 349 349 348 350 350 349 349 349 351 351 350 350 349 350 349 350 350 348 348 348 346 345 345 344 344 344 343 342 341 341 338 339 339
359 357 355 353 352 350 349 347 347 349 348 348 347 347 348 348 349 348 350 349 349 348 348 348 348 347 348 348 348 346 346 345 344 344 343 344 344 343 341 341 341 340
358 356 354 353 351 351 349 347 344 345 345 346 347 347 348 348 348 348 348 348 349 347 348 348 348 347 348 347 348 345 345 344 344 345 344 342 344 344 343 343 342 340
357 355 354 352 350 349 347 346 345 344 345 345 346 345 346 347 347 346 346 345 344 344 344 345 346 346 346 346 347 345 344 342 342 345 343 343 341 342 343 344 342 340
355 353 352 350 348 348 347 347 347 346 345 346 346 344 345 345 345 345 345 344 343 344 343 343 345 344 346 346 345 344 345 344 343 345 343 342 343 342 344 343 342 341
354 352 351 349 348 347 347 347 346 346 346 347 344 344 344 342 343 343 344 344 343 343 344 344 344 345 344 344 344 343 343 344 343 344 343 342 343 342 342 343 343 341
353 350 349 347 346 346 343 343 344 345 345 344 343 342 343 342 341 341 343 343 342 342 343 343 344 344 344 343 343 343 342 342 342 342 342 341 340 340 341 342 342 341
351 349 348 346 345 345 343 342 341 343 344 344 342 341 337 341 343 342 341 341 340 341 341 342 343 343 343 343 343 343 342 342 343 342 341 341 340 340 340 341 341 340
351 348 347 346 345 344 344 342 340 340 341 342 340 340 338 339 340 340 340 339 338 339 340 341 341 342 342 342 342 342 342 341 341 341 341 341 341 342 341 341 341 340
350 348 346 345 344 342 342 340 340 342 342 341 340 338 337 338 340 338 338 337 337 338 340 341 342 342 342 342 341 342 342 341 340 340 341 342 343 342 342 343 341 341
350 348 346 345 344 343 343 342 340 341 341 339 339 337 335 335 337 338 338 337 338 338 338 339 340 340 342 342 342 342 341 341 340 342 343 344 343 341 340 341 341 341
351 350 347 346 345 345 343 341 341 343 343 343 340 336 336 336 336 337 337 337 338 339 339 340 340 340 342 343 342 341 341 341 341 342 342 343 342 342 341 340 341 341
351 351 347 345 344 344 343 343 342 342 342 342 339 335 336 337 337 337 336 336 338 338 338 339 339 339 341 342 341 340 341 340 342 343 342 341 340 340 341 342 342 341
350 349 346 344 343 342 339 338 339 340 340 340 336 334 335 338 337 338 337 337 337 337 337 338 339 340 336 330 333 341 343 343 343 343 342 340 340 340 339 341 340 340
350 348 346 343 343 343 342 340 337 336 335 336 335 334 336 338 338 336 335 336 336 335 336 337 338 339 330 327 327 330 339 343 342 341 341 340 340 340 339 339 340 342
349 348 346 343 343 341 341 339 338 338 336 335 334 334 336 336 335 336 336 336 336 335 334 336 338 332 326 325 326 327 331 340 341 340 341 341 341 340 340 340 340 339
349 347 345 344 343 342 340 338 337 337 335 331 329 331 335 335 334 335 335 335 336 336 335 336 337 331 325 324 325 325 326 332 340 343 342 341 341 341 341 341 341 340
349 347 344 343 343 341 339 337 336 334 333 332 331 332 333 335 335 335 336 336 335 336 336 337 338 331 323 322 322 322 324 328 340 342 341 340 340 341 341 340 340 339
348 346 344 342 341 339 337 337 335 332 332 334 333 332 334 336 336 337 337 337 337 337 337 337 337 327 322 321 319 319 321 327 339 340 341 341 340 339 340 339 340 339
346 345 343 341 339 338 335 334 333 331 330 332 332 333 335 337 338 338 338 337 338 338 336 336 337 325 322 320 318 318 321 335 339 341 340 339 340 339 339 340 338 336
344 343 342 340 338 336 334 332 332 331 331 332 331 332 333 335 337 337 339 338 338 339 338 338 339 329 318 317 317 317 322 338 340 339 339 338 337 338 337 335 335 334
344 343 340 339 338 335 333 332 333 334 334 335 333 332 332 334 337 338 339 340 339 339 338 338 339 330 316 314 315 315 326 339 340 338 336 335 335 336 335 334 334 329
343 342 340 338 337 336 333 331 331 333 335 337 335 335 335 338 338 338 339 340 339 338 335 336 339 329 313 314 314 313 325 337 337 333 333 333 333 333 333 334 334 331
342 341 339 338 337 335 336 334 334 334 334 336 336 337 337 337 338 338 338 339 339 339 338 338 338 342 332 312 311 311 317 334 334 332 330 331 332 331 332 333 333 333

ECMWFNIL_sfc_thetae_024.txt.gz
Theta_e
369 369 367 365 365 363 362 361 361 361 360 357 356 358 355 357 356 354 353 351 350 350 348 349 350 350 349 349 349 349 348 347 347 346 346 344 343 342 341 341 341 340
369 369 368 367 365 365 364 364 363 362 361 361 359 357 358 357 354 353 351 349 350 348 349 348 350 350 349 347 348 346 347 346 345 345 345 344 343 343 341 341 341 341
370 369 368 367 363 365 363 365 364 362 360 360 360 357 355 355 353 353 351 349 349 347 348 349 349 349 348 348 348 347 346 345 345 344 345 345 343 342 343 339 340 340
370 370 368 367 366 366 366 364 363 362 360 359 358 355 353 353 352 351 349 349 349 348 348 347 347 347 347 347 347 346 347 346 345 345 345 344 344 343 342 342 341 340
370 370 369 368 366 367 366 363 361 360 358 357 356 355 353 353 351 350 349 348 349 348 348 347 346 346 347 346 346 346 346 344 344 345 344 343 344 343 341 341 340 338
371 371 370 368 367 366 364 362 361 359 357 355 354 353 353 353 352 349 348 347 345 344 343 345 345 345 344 345 347 345 344 342 342 344 343 342 341 341 340 340 339 338
369 370 369 367 366 365 364 362 361 359 356 356 356 353 352 351 349 347 347 346 345 345 343 344 345 345 345 345 345 345 345 344 344 344 342 341 341 340 340 339 339 339
369 369 368 367 365 364 362 361 360 358 357 356 355 354 352 348 348 346 347 346 345 345 344 344 346 346 343 344 344 343 342 343 342 342 342 341 340 339 339 339 339 339
369 368 367 366 364 362 358 357 358 358 357 355 354 352 352 349 348 346 350 351 345 344 346 346 347 345 344 343 343 342 341 340 340 340 340 339 338 339 339 339 339 339
368 367 365 363 361 359 356 356 356 357 356 355 353 352 349 350 349 349 351 347 343 345 349 346 345 345 343 343 344 342 342 342 341 341 340 339 339 339 338 338 337 338
367 365 363 362 360 356 355 355 356 355 354 354 351 349 348 347 349 351 348 346 343 346 347 346 345 343 342 343 344 343 343 342 341 341 340 341 341 340 339 339 337 337
367 365 362 362 360 357 355 355 355 355 354 352 351 348 349 348 347 346 346 345 344 343 345 346 345 343 343 343 342 343 344 343 342 342 341 341 341 340 340 339 338 338
366 365 363 361 361 359 357 355 353 352 351 349 349 347 344 342 344 344 344 344 344 345 344 344 344 343 344 345 344 345 344 343 342 342 342 342 342 340 338 338 338 338
367 366 364 363 362 360 358 356 355 353 351 351 348 345 341 340 343 344 344 344 344 343 343 345 345 344 344 345 346 345 344 344 344 342 342 343 343 341 338 337 337 336
368 367 365 362 360 359 357 356 354 354 354 351 347 344 340 341 343 345 345 343 343 342 343 344 342 342 342 342 343 344 344 342 343 344 344 342 341 339 339 338 338 337
367 366 362 360 360 357 357 355 354 353 350 349 347 343 345 346 347 344 341 340 340 341 342 342 341 341 337 332 337 344 344 344 343 344 344 341 340 339 338 338 338 338
365 364 361 360 359 356 356 354 352 348 348 348 348 348 345 345 344 341 339 339 339 340 341 340 341 340 332 329 330 332 341 343 343 343 343 341 340 340 340 339 339 339
363 361 359 358 357 356 355 354 352 348 347 348 348 346 345 345 344 342 340 339 338 338 338 339 340 333 326 327 328 327 331 340 341 341 340 341 341 339 340 340 339 339
363 361 359 359 357 356 355 354 352 348 346 345 345 345 344 343 341 340 337 337 338 339 339 339 339 331 326 325 326 325 326 332 341 341 340 339 341 342 342 342 343 343
363 360 359 358 356 354 352 351 349 347 346 345 345 344 343 341 339 336 334 335 337 339 339 338 339 332 324 323 323 323 325 329 342 342 341 340 342 344 344 344 345 346
363 360 357 357 353 351 350 349 348 348 345 344 342 340 340 339 336 335 333 335 336 336 336 336 337 327 322 321 320 320 323 328 341 342 341 342 344 344 345 345 344 343
362 358 356 355 351 350 349 347 346 345 343 342 339 337 338 337 337 336 336 336 336 336 334 334 334 325 321 320 319 319 322 336 340 341 341 341 342 344 346 346 345 344
361 358 355 354 351 349 347 345 343 341 340 340 336 334 333 332 331 330 333 333 334 336 335 337 338 329 319 319 318 318 323 339 340 340 341 342 343 345 344 341 338 338
358 354 353 353 351 348 346 345 343 341 339 338 335 333 331 331 331 331 332 335 336 338 336 337 337 329 316 316 316 316 326 339 340 341 343 344 344 342 341 339 337 334
354 353 353 352 351 349 347 346 345 342 339 336 335 334 333 334 333 333 334 337 338 337 336 336 336 331 315 316 314 314 326 340 341 343 343 343 339 338 338 337 336 335
353 351 352 352 351 349 348 347 345 343 339 336 334 334 334 334 335 335 335 337 339 338 338 337 337 340 339 313 313 312 318 339 342 342 339 335 335 335 333 336 336 336